• în România
  • Lista ţărilor
  • Pe 7 zile
  • Temperatura apei
  • Hartă satelitară
  • Meteo pe hartă
  • Widget-uri
  • user-avatar
    Intrare

    Meteo pe oră la Ondjiwa

    Astăzi, 18 Noiembrie, Sâmbătă

    Timp Temperatura Precipitaţii Vânt Presiune Umiditate
    00:00 +26°C° 0 mm 2 m/s 666 mmHg 17%
    01:00 +25°C° 0 mm 2 m/s 666 mmHg 17%
    02:00 +25°C° 0 mm 2 m/s 666 mmHg 19%
    03:00 +24°C° 0 mm 2 m/s 666 mmHg 21%
    04:00 +23°C° 0 mm 1 m/s 666 mmHg 22%
    05:00 +24°C° 0 mm 2 m/s 666 mmHg 21%
    06:00 +25°C° 0 mm 2 m/s 667 mmHg 20%
    07:00 +27°C° 0 mm 2 m/s 668 mmHg 18%
    08:00 +29°C° 0 mm 3 m/s 668 mmHg 16%
    09:00 +33°C° 0 mm 3 m/s 668 mmHg 14%
    10:00 +35°C° 0 mm 4 m/s 668 mmHg 13%
    11:00 +36°C° 0 mm 4 m/s 668 mmHg 12%
    12:00 +37°C° 0 mm 3 m/s 667 mmHg 11%
    13:00 +38°C° 0 mm 3 m/s 667 mmHg 12%
    14:00 +37°C° 0 mm 2 m/s 667 mmHg 12%
    15:00 +37°C° 0 mm 2 m/s 666 mmHg 12%
    16:00 +37°C° 0 mm 2 m/s 666 mmHg 12%
    17:00 +36°C° 0 mm 2 m/s 666 mmHg 14%
    18:00 +34°C° 0 mm 2 m/s 666 mmHg 16%
    19:00 +32°C° 0 mm 2 m/s 666 mmHg 17%
    20:00 +31°C° 0 mm 2 m/s 666 mmHg 18%
    21:00 +30°C° 0 mm 2 m/s 666 mmHg 19%
    22:00 +29°C° 0 mm 2 m/s 666 mmHg 19%
    23:00 +29°C° 0 mm 2 m/s 666 mmHg 19%

    Mâine, 19 Noiembrie, Duminică

    Timp Temperatura Precipitaţii Vânt Presiune Umiditate
    00:00 +28°C° 0 mm 2 m/s 666 mmHg 19%
    01:00 +27°C° 0 mm 2 m/s 666 mmHg 18%
    02:00 +26°C° 0 mm 2 m/s 666 mmHg 20%
    03:00 +26°C° 0 mm 2 m/s 666 mmHg 21%
    04:00 +25°C° 0 mm 1 m/s 666 mmHg 23%
    05:00 +26°C° 0 mm 2 m/s 666 mmHg 22%
    06:00 +27°C° 0 mm 2 m/s 667 mmHg 22%
    07:00 +28°C° 0 mm 3 m/s 667 mmHg 21%
    08:00 +30°C° 0 mm 2 m/s 668 mmHg 19%
    09:00 +34°C° 0 mm 2 m/s 668 mmHg 16%
    10:00 +37°C° 0 mm 2 m/s 669 mmHg 14%
    11:00 +37°C° 0 mm 2 m/s 668 mmHg 13%
    12:00 +38°C° 0 mm 2 m/s 668 mmHg 12%
    13:00 +39°C° 0 mm 2 m/s 667 mmHg 11%
    14:00 +39°C° 0 mm 2 m/s 667 mmHg 12%
    15:00 +38°C° 0 mm 3 m/s 666 mmHg 12%
    16:00 +38°C° 0 mm 3 m/s 666 mmHg 13%
    17:00 +36°C° 0 mm 3 m/s 666 mmHg 15%
    18:00 +35°C° 0 mm 2 m/s 666 mmHg 17%
    19:00 +32°C° 0 mm 2 m/s 666 mmHg 19%
    20:00 +31°C° 0 mm 2 m/s 666 mmHg 21%
    21:00 +30°C° 0 mm 3 m/s 666 mmHg 22%
    22:00 +29°C° 0 mm 3 m/s 667 mmHg 24%
    23:00 +29°C° 0 mm 3 m/s 666 mmHg 24%

    Poimâine, 20 Noiembrie, Luni

    Timp Temperatura Precipitaţii Vânt Presiune Umiditate
    00:00 +28°C° 0 mm 3 m/s 666 mmHg 25%
    01:00 +28°C° 0 mm 3 m/s 666 mmHg 25%
    02:00 +27°C° 0 mm 3 m/s 666 mmHg 25%
    03:00 +26°C° 0 mm 3 m/s 666 mmHg 25%
    04:00 +26°C° 0 mm 3 m/s 666 mmHg 24%
    05:00 +27°C° 0 mm 4 m/s 666 mmHg 23%
    06:00 +27°C° 0 mm 4 m/s 667 mmHg 21%
    07:00 +28°C° 0 mm 4 m/s 667 mmHg 19%
    08:00 +31°C° 0 mm 3 m/s 668 mmHg 17%
    09:00 +34°C° 0 mm 2 m/s 668 mmHg 15%
    10:00 +36°C° 0 mm 1 m/s 669 mmHg 12%
    11:00 +37°C° 0 mm 1 m/s 668 mmHg 12%
    12:00 +39°C° 0 mm 1 m/s 668 mmHg 12%
    13:00 +40°C° 0 mm 1 m/s 667 mmHg 11%
    14:00 +40°C° 0 mm 1 m/s 667 mmHg 11%
    15:00 +39°C° 0 mm 1 m/s 666 mmHg 11%
    16:00 +38°C° 0 mm 2 m/s 665 mmHg 11%
    17:00 +37°C° 0 mm 2 m/s 666 mmHg 12%
    18:00 +36°C° 0 mm 2 m/s 666 mmHg 13%
    19:00 +34°C° 0 mm 2 m/s 666 mmHg 15%
    20:00 +34°C° 0 mm 2 m/s 666 mmHg 16%
    21:00 +33°C° 0 mm 3 m/s 667 mmHg 17%
    22:00 +33°C° 0 mm 3 m/s 668 mmHg 19%
    23:00 +32°C° 0 mm 4 m/s 667 mmHg 20%

    21 Noiembrie, Marţi

    Timp Temperatura Precipitaţii Vânt Presiune Umiditate
    00:00 +30°C° 0 mm 4 m/s 667 mmHg 21%
    01:00 +29°C° 0 mm 5 m/s 667 mmHg 22%
    02:00 +28°C° 0 mm 5 m/s 667 mmHg 24%
    03:00 +27°C° 0 mm 4 m/s 666 mmHg 25%
    04:00 +26°C° 0 mm 4 m/s 666 mmHg 27%
    05:00 +26°C° 0 mm 4 m/s 667 mmHg 26%
    06:00 +27°C° 0 mm 4 m/s 667 mmHg 25%
    07:00 +27°C° 0 mm 4 m/s 668 mmHg 23%
    08:00 +29°C° 0 mm 4 m/s 668 mmHg 21%
    09:00 +33°C° 0 mm 4 m/s 668 mmHg 18%
    10:00 +35°C° 0 mm 5 m/s 669 mmHg 16%
    11:00 +36°C° 0 mm 4 m/s 668 mmHg 15%
    12:00 +37°C° 0 mm 4 m/s 667 mmHg 13%
    13:00 +40°C° 0 mm 4 m/s 667 mmHg 12%
    14:00 +38°C° 0 mm 4 m/s 666 mmHg 12%
    15:00 +38°C° 0 mm 4 m/s 666 mmHg 12%
    16:00 +38°C° 0 mm 4 m/s 665 mmHg 12%
    17:00 +36°C° 0 mm 4 m/s 665 mmHg 13%
    18:00 +35°C° 0 mm 3 m/s 665 mmHg 14%
    19:00 +33°C° 0 mm 3 m/s 665 mmHg 16%
    20:00 +33°C° 0 mm 3 m/s 666 mmHg 17%
    21:00 +32°C° 0 mm 4 m/s 666 mmHg 17%
    22:00 +32°C° 0 mm 5 m/s 667 mmHg 18%
    23:00 +30°C° 0 mm 5 m/s 666 mmHg 20%

    22 Noiembrie, Miercuri

    Timp Temperatura Precipitaţii Vânt Presiune Umiditate
    00:00 +29°C° 0 mm 5 m/s 666 mmHg 21%
    01:00 +27°C° 0 mm 5 m/s 666 mmHg 23%
    02:00 +27°C° 0 mm 5 m/s 666 mmHg 24%
    03:00 +26°C° 0 mm 4 m/s 666 mmHg 24%
    04:00 +26°C° 0 mm 4 m/s 666 mmHg 25%
    05:00 +27°C° 0 mm 4 m/s 666 mmHg 24%
    06:00 +27°C° 0 mm 5 m/s 667 mmHg 23%
    07:00 +28°C° 0 mm 5 m/s 668 mmHg 21%
    08:00 +32°C° 0 mm 5 m/s 668 mmHg 19%
    09:00 +34°C° 0 mm 5 m/s 668 mmHg 17%
    10:00 +36°C° 0 mm 5 m/s 669 mmHg 15%
    11:00 +37°C° 0 mm 4 m/s 668 mmHg 15%
    12:00 +38°C° 0 mm 4 m/s 667 mmHg 14%
    13:00 +40°C° 0 mm 4 m/s 666 mmHg 13%
    14:00 +39°C° 0 mm 3 m/s 666 mmHg 13%
    15:00 +38°C° 0 mm 3 m/s 665 mmHg 13%
    16:00 +38°C° 0 mm 3 m/s 665 mmHg 13%
    17:00 +37°C° 0 mm 3 m/s 665 mmHg 15%
    18:00 +35°C° 0 mm 2 m/s 665 mmHg 17%
    19:00 +34°C° 0 mm 2 m/s 665 mmHg 18%
    20:00 +32°C° 0,2 mm 2 m/s 666 mmHg 21%
    21:00 +31°C° 0,2 mm 2 m/s 666 mmHg 23%
    22:00 +31°C° 0,2 mm 2 m/s 667 mmHg 26%
    23:00 +30°C° 0,1 mm 3 m/s 666 mmHg 30%

    23 Noiembrie, Joi

    Timp Temperatura Precipitaţii Vânt Presiune Umiditate
    00:00 +28°C° 0,1 mm 3 m/s 666 mmHg 35%
    01:00 +27°C° 0,1 mm 3 m/s 665 mmHg 39%
    02:00 +27°C° 0 mm 3 m/s 665 mmHg 39%
    03:00 +26°C° 0 mm 2 m/s 665 mmHg 40%
    04:00 +26°C° 0 mm 2 m/s 665 mmHg 40%
    05:00 +26°C° 0 mm 2 m/s 666 mmHg 35%
    06:00 +27°C° 0 mm 3 m/s 666 mmHg 31%
    07:00 +28°C° 0 mm 3 m/s 667 mmHg 26%
    08:00 +30°C° 0 mm 3 m/s 667 mmHg 23%
    09:00 +34°C° 0 mm 3 m/s 667 mmHg 19%
    10:00 +36°C° 0 mm 3 m/s 668 mmHg 15%
    11:00 +37°C° 0 mm 3 m/s 667 mmHg 15%
    12:00 +38°C° 0 mm 2 m/s 666 mmHg 14%
    13:00 +39°C° 0 mm 2 m/s 666 mmHg 14%
    14:00 +39°C° 0 mm 2 m/s 665 mmHg 14%
    15:00 +39°C° 0 mm 2 m/s 665 mmHg 14%
    16:00 +38°C° 0 mm 2 m/s 664 mmHg 15%
    17:00 +36°C° 0 mm 1 m/s 664 mmHg 16%
    18:00 +35°C° 0 mm 1 m/s 664 mmHg 18%
    19:00 +33°C° 0 mm 1 m/s 665 mmHg 20%
    20:00 +32°C° 0 mm 2 m/s 665 mmHg 22%
    21:00 +31°C° 0 mm 2 m/s 665 mmHg 25%
    22:00 +30°C° 0 mm 2 m/s 666 mmHg 27%
    23:00 +29°C° 0 mm 3 m/s 666 mmHg 29%
    Arată mai mult